Starlink 5249

operational
NORAD ID: 54205 Int'l Des: 2022-141 Owner: SPXS Country: US Constellation: starlink
LEOCIRCULAR

Über Starlink 5249

Beschreibung wird geladen...

Live-Position

3D-Globus wird geladen...

Nächste Überflüge

Höhenverlauf

Altitude vs Time

uPlot chart will show altitude changes over time

Zweizeiliger Elementsatz

1 54205U 22141BA 26063.13070218 .00000053 00000-0 21436-4 0 9993
2 54205 53.2196 18.7212 0001552 83.3415 276.7754 15.08840064185167
Epoch: 4. März 2026 • Age: 18 hours

Aktueller Status

Höhe 546.0 km
Geschwindigkeit 7.59 km/s
Subsatellitenpunkt -20.43°S, 134.15°E
Startdatum 28. Okt. 2022
Alter 3.3 years
Typ internet

Technische Details

Klassifizierung Payload
Masse 305.00 kg
Trockenmasse 290.00 kg
Gesamtmasse 305.00 kg
Länge 0.20 m
Durchmesser 2.80 m
Spannweite 9.00 m
Form Box + pan
Hersteller SPXS
Bus-Typ Starlink
Phasenstatus In Orbit
Besitzer/Staat SPXS/US

Große Konstellationen

Loading constellations...